KEMI current weather conditions

sailwx.info

Last reported at 2019-Sep-21 01:21 UTC.
Time now 2019-Dec-14 12:58 UTC

Location: N 65°47' E 024°35'.
View on Google Maps.

See reports from other nearby stations

  
Tides and Currents Weather Stations Pressure Air Temp Water Temp Dewpoint Dewpoint Depression Visibility Wind Speed Wind Dir Waves Ship Positions
date/time (UTC)wind fromknots sea level pressurealtimeterstation pressurevisibilityair tempwater tempwave heightnotes
2019-Dec-14 11:50 110 4 5.4 1.0
2019-Dec-14 11:20 110 4 5.4 1.0
2019-Dec-14 10:50 110 4 5.4 1.0
2019-Dec-14 10:20 130 4 5.4 1.0
2019-Dec-14 09:50 140 6 5.4 1.0
2019-Dec-14 09:20 140 6 5.4 1.0
2019-Dec-14 08:50 130 6 5.4 1.0
2019-Dec-14 08:20 140 5 5.4 1.0
2019-Dec-14 07:50 130 4 5.4 1.0
2019-Dec-14 07:20 140 6 5.4 1.0
2019-Dec-14 06:50 140 6 5.4 1.0
2019-Dec-14 06:20 150 6 5.4 1.0 Light snow showers.
2019-Dec-14 05:50 150 6 5.4 1.0 Light snow showers.
2019-Dec-14 05:20 150 6 5.4 1.0
2019-Dec-14 04:50 160 6 5.4 1.0 Light rain showers.
2019-Dec-14 04:20 160 6 5.4 1.0 Light rain showers.
2019-Dec-14 03:50 160 6 5.4 1.0
2019-Dec-14 03:20 150 6 5.4 1.0
2019-Dec-14 02:50 160 7 5.4 1.0
2019-Dec-14 02:20 160 6 5.4 1.0 Light rain.
2019-Dec-14 01:50 160 7 5.4 1.0
2019-Dec-14 01:20 160 7 5.4 1.0 Light rain showers.
2019-Dec-14 00:50 170 7 5.4 1.0
2019-Dec-14 00:20 170 9 5.4 1.0
2019-Dec-13 23:50 170 9 5.4 1.0
2019-Dec-13 23:20 180 9 5.4 1.0
2019-Dec-13 22:50 180 11 5.4 1.0 Light rain showers.
2019-Dec-13 22:20 170 9 5.4 1.0 Light rain.
2019-Dec-13 21:50 170 8 3.8 1.0 Light rain.
2019-Dec-13 21:20 170 8 5.4 1.0 Light rain.
2019-Dec-13 20:50 170 8 5.4 1.0
2019-Dec-13 20:20 170 11 5.4 1.0 Light rain showers.
2019-Dec-13 19:50 180 13 5.4 1.0 Light rain.
2019-Dec-13 19:20 170 9 5.4 1.0
2019-Dec-13 18:50 170 9 5.4 1.0
2019-Dec-13 18:20 170 11 5.4 1.0
2019-Dec-13 17:50 180 9 5.4 1.0
2019-Dec-13 17:20 180 7 5.4 1.0
2019-Dec-13 16:50 170 8 5.4 1.0 Light rain.
2019-Dec-13 16:20 170 11 4.9 1.0
2019-Dec-13 15:50 180 9 5.4 1.0 Light snow showers.
2019-Dec-13 15:20 170 8 5.4 1.0 Light drizzle snow.
2019-Dec-13 14:50 180 9 5.4 1.0 Light drizzle snow.
2019-Dec-13 14:20 180 9 5.4 1.0 Light drizzle snow.
2019-Dec-13 13:50 180 11 5.4 1.0 Light snow.
2019-Dec-13 13:20 170 8 2.7 1.0 Light drizzle snow.
2019-Dec-13 12:50 180 9 5.4 1.0 Light rain showers.
2019-Dec-13 12:20 170 9 5.4 1.0
2019-Dec-13 11:50 170 8 4.3-0.0 Light rain.
2019-Dec-13 11:20 180 9 5.4-0.0 Light rain snow.
2019-Dec-13 10:50 180 11 1.1-0.0 Light snow.
2019-Dec-13 10:20 180 12 3.2-0.0 Light snow.
2019-Dec-13 09:50 170 13 2.7-0.0 Light snow.
2019-Dec-13 09:20 170 12 3.8-0.0 Light snow showers.
2019-Dec-13 08:50 170 12 2.7-0.0 Light snow showers.
2019-Dec-13 08:20 180 13 5.4-0.0 Light rain.
2019-Dec-13 07:50 170 12 4.9-0.0 Light rain.
2019-Dec-13 07:20 180 12 5.4-0.0 Light snow.
2019-Dec-13 06:50 180 13 2.2-0.0 Light freezing drizzle. Snow.
2019-Dec-13 06:20 180 12 1.9-0.0 Light freezing drizzle. Snow.
2019-Dec-13 05:50 170 11 2.2-0.0 Light freezing drizzle. Snow.
2019-Dec-13 05:20 170 13 1.8-0.0 Light freezing drizzle. Snow.
2019-Dec-13 04:50 180 13 2.1-0.0 Light freezing drizzle. Snow.
2019-Dec-13 04:20 170 13 1.7-0.0 Light freezing drizzle. Snow.
2019-Dec-13 03:50 180 13 2.1-0.0 Light snow.
2019-Dec-13 03:20 170 12 2.1-0.0 Light snow.
2019-Dec-13 02:50 180 13 1.9-0.0 Light freezing drizzle. Snow.
2019-Dec-13 02:20 170 13 1.7-0.0 Light freezing drizzle. Snow.
2019-Dec-13 01:50 170 13 2.0-0.0 Light snow.
2019-Dec-13 01:20 170 11 gusting 20 2.4-0.0 Light snow.
2019-Dec-13 00:50 170 12 5.4-0.0 Light snow.
2019-Dec-13 00:20 170 11 5.4-0.0 Light freezing drizzle. Snow.
2019-Dec-12 23:50 170 9 2.7-0.0 Light snow.
2019-Dec-12 23:20 170 11 3.2-0.0 Light rain.
2019-Dec-12 22:50 170 11 gusting 20 2.7-0.0 Light snow.
2019-Dec-12 22:20 170 11 4.9-0.0 Light snow.
2019-Dec-12 21:50 170 11 3.8-0.0 Light snow.
2019-Dec-12 21:20 170 12 3.2-0.0 Light snow.
2019-Dec-12 20:50 170 11 2.1-0.0 Light snow.
2019-Dec-12 20:20 170 11 2.2-0.0 Light snow.
2019-Dec-12 19:50 170 12 2.7 1.0 Light freezing rain. Snow.
2019-Dec-12 19:20 170 13 5.4 1.0 Light snow.
2019-Dec-12 18:50 170 13 5.4 1.0
2019-Dec-12 18:20 170 12 5.4 1.0
2019-Dec-12 17:50 170 12 5.4 1.0
2019-Dec-12 17:20 170 12 5.4 1.0
2019-Dec-12 16:50 180 13 3.8 1.0
2019-Dec-12 16:20 170 13 3.8 1.0
2019-Dec-12 15:50 180 13 4.3 1.0
2019-Dec-12 15:20 170 13 5.4 1.0
2019-Dec-12 14:50 170 13 5.4 1.0
2019-Dec-12 14:20 180 13 5.4 1.0 Light drizzle.
2019-Dec-12 13:50 170 13 2.2 1.0 Light drizzle.
2019-Dec-12 13:20 180 12 1.6 1.0 Light drizzle.
2019-Dec-12 12:50 170 12 3.2 1.0 Light rain showers.
2019-Dec-12 12:20 180 9 1.9 1.0 Light rain showers.